JAL441 RJFK-RJFU

Flight info

Callsign JAL441
Flight time 0h 20m
Altitude 12000
Route SASIK KAZSA OLE
Aircraft B738/M-SDE2E3FGHIRWXY/LB1

Departure

Time 2026-04-26 18:49
Airport Kagoshima Airport (RJFK)

Arrival

Time 2026-04-26 19:09
Airport Nagasaki Airport (RJFU)
Time Latitude Longitude Altitude Speed Heading
2026-04-26 17:39 31.80165 130.71638 901 ft 0 kts 241°
2026-04-26 18:41 31.80168 130.71645 902 ft 4 kts 241°
2026-04-26 18:41 31.80181 130.71673 903 ft 4 kts 239°
2026-04-26 18:41 31.80196 130.71699 904 ft 4 kts 236°
2026-04-26 18:42 31.80211 130.71725 904 ft 4 kts 231°
2026-04-26 18:42 31.80229 130.71748 908 ft 4 kts 216°
2026-04-26 18:42 31.80245 130.71759 912 ft 0 kts 194°
2026-04-26 18:44 31.80245 130.71758 912 ft 0 kts 194°
2026-04-26 18:44 31.80224 130.71775 906 ft 7 kts 135°
2026-04-26 18:45 31.80185 130.71821 904 ft 9 kts 137°
2026-04-26 18:45 31.80122 130.71866 902 ft 12 kts 151°
2026-04-26 18:45 31.80042 130.71916 900 ft 14 kts 152°
2026-04-26 18:45 31.79946 130.71978 895 ft 17 kts 150°
2026-04-26 18:46 31.79835 130.72053 890 ft 19 kts 150°
2026-04-26 18:46 31.79725 130.72130 887 ft 18 kts 149°
2026-04-26 18:46 31.79618 130.72204 884 ft 18 kts 149°
2026-04-26 18:46 31.79513 130.72275 884 ft 17 kts 150°
2026-04-26 18:47 31.79413 130.72343 883 ft 16 kts 150°
2026-04-26 18:47 31.79316 130.72408 882 ft 16 kts 150°
2026-04-26 18:47 31.79222 130.72470 882 ft 15 kts 150°
2026-04-26 18:47 31.79136 130.72536 879 ft 15 kts 128°
2026-04-26 18:48 31.79139 130.72645 877 ft 14 kts 59°
2026-04-26 18:48 31.79210 130.72693 878 ft 13 kts 345°
2026-04-26 18:48 31.79318 130.72622 883 ft 35 kts 330°
2026-04-26 18:48 31.79740 130.72341 888 ft 103 kts 330°
2026-04-26 18:49 31.80529 130.71800 921 ft 157 kts 328°
2026-04-26 18:49 31.81538 130.71242 1569 ft 159 kts 340°
2026-04-26 18:49 31.82566 130.70711 2290 ft 162 kts 333°
2026-04-26 18:49 31.83589 130.70266 3149 ft 158 kts 342°
2026-04-26 18:50 31.84743 130.69861 3460 ft 188 kts 342°
2026-04-26 18:50 31.86064 130.69398 3644 ft 213 kts 342°
2026-04-26 18:50 31.87540 130.68890 4056 ft 226 kts 343°
2026-04-26 18:50 31.89092 130.68363 4514 ft 243 kts 343°
2026-04-26 18:51 31.90754 130.67801 5136 ft 253 kts 343°
2026-04-26 18:51 31.92462 130.67226 5911 ft 257 kts 342°
2026-04-26 18:51 31.94203 130.66640 6629 ft 264 kts 342°
2026-04-26 18:51 31.95977 130.66032 7373 ft 267 kts 340°
2026-04-26 18:52 31.97741 130.65329 8150 ft 269 kts 338°
2026-04-26 18:52 31.99522 130.64589 8926 ft 273 kts 338°
2026-04-26 18:52 32.01298 130.63852 9677 ft 277 kts 338°
2026-04-26 18:52 32.03137 130.63095 10261 ft 286 kts 338°
2026-04-26 18:53 32.05097 130.62288 10432 ft 310 kts 338°
2026-04-26 18:53 32.07209 130.61422 10624 ft 331 kts 338°
2026-04-26 18:53 32.09422 130.60518 11124 ft 340 kts 338°
2026-04-26 18:53 32.11660 130.59606 11714 ft 342 kts 338°
2026-04-26 18:54 32.13909 130.58690 11855 ft 341 kts 338°
2026-04-26 18:54 32.16136 130.57782 11880 ft 337 kts 338°
2026-04-26 18:54 32.18345 130.56879 11888 ft 336 kts 338°
2026-04-26 18:54 32.20525 130.55986 11880 ft 336 kts 338°
2026-04-26 18:55 32.22728 130.55083 11882 ft 334 kts 338°
2026-04-26 18:55 32.24886 130.54200 11873 ft 323 kts 338°
2026-04-26 18:55 32.26972 130.53347 11816 ft 313 kts 337°
2026-04-26 18:55 32.29013 130.52505 11592 ft 307 kts 336°
2026-04-26 18:56 32.30865 130.51323 11257 ft 300 kts 320°
2026-04-26 18:56 32.32463 130.49773 10931 ft 296 kts 317°
2026-04-26 18:56 32.34029 130.48195 10595 ft 295 kts 317°
2026-04-26 18:56 32.35562 130.46643 10310 ft 292 kts 318°
2026-04-26 18:57 32.37080 130.45113 10186 ft 283 kts 318°
2026-04-26 18:57 32.38064 130.44124 10099 ft 277 kts 318°
2026-04-26 18:57 32.39994 130.42190 9933 ft 266 kts 319°
2026-04-26 18:57 32.41398 130.40786 9681 ft 264 kts 319°
2026-04-26 18:58 32.42793 130.39393 9408 ft 262 kts 319°
2026-04-26 18:58 32.44180 130.38009 9145 ft 259 kts 319°
2026-04-26 18:58 32.45525 130.36666 8938 ft 255 kts 319°
2026-04-26 18:58 32.46876 130.35318 8666 ft 254 kts 319°
2026-04-26 18:59 32.48219 130.33978 8392 ft 251 kts 320°
2026-04-26 18:59 32.49553 130.32646 8143 ft 250 kts 320°
2026-04-26 18:59 32.50879 130.31322 7873 ft 249 kts 320°
2026-04-26 18:59 32.52201 130.30000 7612 ft 248 kts 320°
2026-04-26 19:00 32.53521 130.28682 7347 ft 247 kts 320°
2026-04-26 19:00 32.54831 130.27373 7088 ft 246 kts 320°
2026-04-26 19:00 32.56120 130.26084 6834 ft 245 kts 320°
2026-04-26 19:00 32.57419 130.24785 6572 ft 244 kts 320°
2026-04-26 19:01 32.58720 130.23485 6304 ft 244 kts 321°
2026-04-26 19:01 32.60051 130.22238 6011 ft 244 kts 323°
2026-04-26 19:01 32.61398 130.21016 5734 ft 243 kts 323°
2026-04-26 19:01 32.62741 130.19801 5483 ft 242 kts 323°
2026-04-26 19:02 32.64072 130.18594 5234 ft 241 kts 323°
2026-04-26 19:02 32.65398 130.17388 4991 ft 239 kts 323°
2026-04-26 19:02 32.66700 130.16203 4883 ft 232 kts 323°
2026-04-26 19:02 32.67538 130.15437 4812 ft 228 kts 323°
2026-04-26 19:03 32.69167 130.13950 4670 ft 219 kts 323°
2026-04-26 19:03 32.70350 130.12868 4578 ft 211 kts 323°
2026-04-26 19:03 32.71508 130.11809 4506 ft 211 kts 323°
2026-04-26 19:03 32.72688 130.10730 4278 ft 217 kts 323°
2026-04-26 19:04 32.73886 130.09633 4058 ft 217 kts 323°
2026-04-26 19:04 32.75074 130.08544 3821 ft 215 kts 323°
2026-04-26 19:04 32.76258 130.07460 3577 ft 214 kts 323°
2026-04-26 19:04 32.77435 130.06381 3349 ft 213 kts 323°
2026-04-26 19:05 32.79704 130.04172 2871 ft 212 kts 319°
2026-04-26 19:05 32.80793 130.03006 2694 ft 208 kts 319°
2026-04-26 19:05 32.81810 130.01906 2613 ft 188 kts 319°
2026-04-26 19:06 32.82740 130.00909 2601 ft 178 kts 319°
2026-04-26 19:06 32.83678 129.99907 2317 ft 188 kts 319°
2026-04-26 19:06 32.84625 129.98906 2161 ft 171 kts 320°
2026-04-26 19:06 32.85488 129.98007 1874 ft 162 kts 320°
2026-04-26 19:07 32.86294 129.97181 1654 ft 146 kts 320°
2026-04-26 19:07 32.87020 129.96380 1330 ft 140 kts 319°
2026-04-26 19:07 32.87739 129.95595 1012 ft 142 kts 317°
2026-04-26 19:07 32.88447 129.94768 712 ft 146 kts 316°
2026-04-26 19:08 32.89190 129.93951 461 ft 144 kts 321°
2026-04-26 19:08 32.89958 129.93196 259 ft 147 kts 321°
2026-04-26 19:08 32.90718 129.92375 65 ft 146 kts 319°
2026-04-26 19:08 32.91419 129.91627 20 ft 120 kts 318°
2026-04-26 19:09 32.91884 129.91131 16 ft 59 kts 319°
2026-04-26 19:09 32.92085 129.90919 20 ft 32 kts 318°
2026-04-26 19:09 32.92249 129.90746 16 ft 31 kts 319°
2026-04-26 19:09 32.92297 129.90696 16 ft 3 kts 320°
2026-04-26 19:10 32.92344 129.90663 17 ft 13 kts 347°
2026-04-26 19:10 32.92408 129.90697 14 ft 13 kts 43°
2026-04-26 19:10 32.92445 129.90812 14 ft 17 kts 112°
2026-04-26 19:10 32.92360 129.90919 15 ft 18 kts 137°
2026-04-26 19:11 32.92267 129.91013 15 ft 17 kts 140°
2026-04-26 19:11 32.92178 129.91104 13 ft 17 kts 136°
2026-04-26 19:11 32.92096 129.91196 12 ft 16 kts 136°
2026-04-26 19:11 32.92017 129.91285 11 ft 15 kts 137°
2026-04-26 19:12 32.91938 129.91366 10 ft 15 kts 139°
2026-04-26 19:12 32.91863 129.91444 10 ft 14 kts 139°
2026-04-26 19:12 32.91792 129.91518 11 ft 13 kts 139°
2026-04-26 19:12 32.91724 129.91590 11 ft 13 kts 138°
2026-04-26 19:13 32.91658 129.91660 12 ft 13 kts 138°
2026-04-26 19:13 32.91593 129.91729 14 ft 12 kts 138°
2026-04-26 19:13 32.91532 129.91797 14 ft 12 kts 136°
2026-04-26 19:13 32.91470 129.91867 14 ft 12 kts 136°
2026-04-26 19:14 32.91410 129.91936 16 ft 12 kts 136°
2026-04-26 19:14 32.91352 129.92002 16 ft 12 kts 136°
2026-04-26 19:14 32.91287 129.92078 12 ft 14 kts 136°
2026-04-26 19:14 32.91264 129.92108 12 ft 14 kts 124°
2026-04-26 19:15 32.91268 129.92232 16 ft 8 kts 54°
2026-04-26 19:15 32.91295 129.92265 14 ft 4 kts 47°
2026-04-26 19:15 32.91297 129.92269 14 ft 0 kts 47°
2026-04-26 19:15 32.91299 129.92271 14 ft 0 kts 47°